Regional Weather Roundup
Issued by NWS

Home | Current Version | Previous Version | Graphics & Text | Print | Product List | Glossary On
Versions: 1 2 3 4 5 6 7 8 9 10 11 12 13 14 15 16 17 18 19 20 21 22 23 24 25 26 27 28 29 30 31 32 33 34 35 36 37 38 39 40 41 42 43 44 45 46 47 48 49 50
000
ASUS43 KLOT 201403
RWRIL

ILLINOIS REGIONAL WEATHER ROUNDUP
NATIONAL WEATHER SERVICE CHICAGO/ROMEOVILLE IL
800 AM CST FRI JAN 20 2017

NOTE: "FAIR" INDICATES FEW OR NO CLOUDS BELOW 12,000 FEET WITH NO
SIGNIFICANT WEATHER AND/OR OBSTRUCTIONS TO VISIBILITY.

* THESE STATIONS ARE NOT UNDER NWS QUALITY CONTROL. THEY ALSO MAY NOT
  REPORT WEATHER SUCH AS PRECIPITATION OR FOG.

ILZ001-002-007-009-015-016-024-201500-
NORTHWEST ILLINOIS

CITY           SKY/WX    TMP DP  RH WIND       PRES   REMARKS
MOLINE         FOG       37  35  92 E6        29.63R VSB 1/2 WCI  32
SAVANNA*       CLOUDY    37  36  99 E7        29.63S FOG     WCI  31
$$

ILZ003-004-008-010-011-017-018-201500-
NORTH CENTRAL ILLINOIS

CITY           SKY/WX    TMP DP  RH WIND       PRES   REMARKS
ROCKFORD       CLOUDY    38  36  92 NE5       29.65R FOG     WCI  34
FREEPORT*      FOG       35  35  99 CALM      29.66R VSB 1/4
ROCHELLE*      FOG       36  36 100 E5        29.62F VSB 3/4 WCI  32
DE KALB*       CLOUDY    37  37  99 E3        29.63S FOG
$$

ILZ005-006-012>014-019>023-201500-
NORTHEAST ILLINOIS

CITY           SKY/WX    TMP DP  RH WIND       PRES   REMARKS
CHICAGO-OHARE  CLOUDY    38  37  97 E7        29.62S FOG     WCI  33
CHICAGO-MIDWAY CLOUDY    38  37  97 E8        29.62S FOG     WCI  32
AURORA         CLOUDY    39  37  92 NE3       29.63R FOG
LANSING*       FOG       37  37 100 N3        29.62S VSB 1
JOLIET*        CLOUDY    39  39  98 CALM      29.64R FOG
WAUKEGAN       FOG       37  36  96 NE8       29.63S VSB 1   WCI  31
DUPAGE AIRPORT CLOUDY    38  36  92 E6        29.63R FOG     WCI  33
KANKAKEE*      CLOUDY    38  38  97 CALM      29.62F FOG
WHEELING       CLOUDY    38  36  92 E6        29.64R FOG     WCI  33
MORRIS*        FOG       36  35  98 CALM      29.62F VSB 3/4
ROMEOVILLE*    CLOUDY    38  38 100 CALM      29.63R FOG
NORTHERLY ISL    N/A     35  35 100 MISG        N/A
$$

LMZ740>746-201500-
SOUTHERN LAKE MICHIGAN

STATION/POSITION SKY/WX   TEMP    WIND        PRES    VSBY  WAVE
                          AIR SEA DIR/SP/G                  HT/PER
                          (F)     (DEG/KT/KT) (MB)    (MI)  (FT/S)
HARRISON CRIB              38      70/ 11/ 11   N/A
BURNHAM HARBOR             35      30/  1/  6   N/A
CALUMET HARBOR             35      30/  5/  7 1002.8
BURNS HARBOR               35      60/  7/ 11 1003.7
MICHIGAN CITY              34      40/  8/  9   N/A
$$

ILZ025>027-034>036-040-047-049-050-058-095>099-201500-
WEST-CENTRAL ILLINOIS

CITY           SKY/WX    TMP DP  RH WIND       PRES   REMARKS
QUINCY         FOG       42  42 100 CALM      29.62S VSB<1/4
GALESBURG*     DRZL/FOG  37  37 100 CALM      29.63R VSB 3/4
MACOMB*        FOG       36  36 100 CALM      29.67R VSB 1/2
JACKSONVILLE*  FOG       42  42 100 S3        29.64S VSB 1/2
PITTSFIELD*    FOG       44  44 100 S3        29.65R VSB<1/4
$$

ILZ028>032-037-038-041>044-048-051>054-059>061-201500-
CENTRAL ILLINOIS

CITY           SKY/WX    TMP DP  RH WIND       PRES   REMARKS
BLOOMINGTON    FOG       41  41 100 SW5       29.63R VSB 1/4
DECATUR        HAZE      44  32  62 SW6       29.65R VSB 1/2
PEORIA         FOG       39  39 100 CALM      29.64S VSB 1/2
LACON*         FOG       37  37 100 CALM      29.64R VSB 3/4
LINCOLN*       CLOUDY    42  42 100 CALM      29.65R FOG
SPRINGFIELD    FOG       44  43  96 CALM      29.67R VSB 1/2
TAYLORVILLE    FOG       45  45 100 SW8       29.67R VSB 1
$$

ILZ033-039-045-046-055>057-062-063-201500-
EAST-CENTRAL ILLINOIS

CITY           SKY/WX    TMP DP  RH WIND       PRES   REMARKS
CHAMPAIGN      FOG       43  42  97 SW7       29.64R VSB 1/4
MATTOON        FOG       46  45  96 SW6       29.66R VSB 3/4
PARIS*         CLOUDY    45  45 100 CALM      29.66R FOG
$$

ILZ079-100>102-201500-
SOUTHWEST ILLINOIS

CITY           SKY/WX    TMP DP  RH WIND       PRES   REMARKS
ALTON          CLOUDY    46  46 100 CALM      29.65S FOG
BELLEVILLE     CLOUDY    47  47 100 CALM      29.65R
CAHOKIA*       PTCLDY    47  44  90 S5        29.65R
SPARTA*        CLOUDY    49  47  93 S9        29.68R
$$

ILZ064>066-069>071-074>076-080>082-084>086-088>090-092>094-201500-
SOUTH-CENTRAL ILLINOIS

CITY           SKY/WX    TMP DP  RH WIND       PRES   REMARKS
CARBONDALE     CLOUDY    50  49  96 S8        29.70R
CAIRO*         CLOUDY    51  51  99 CALM      29.71S
EFFINGHAM*     FOG       47  47 100 SW3       29.68S VSB 1/4
MARION         CLOUDY    52  50  93 S8        29.71R
MT. VERNON     CLOUDY    50  49  96 SW10      29.69R
CENTRALIA*     CLOUDY    50  50 100 CALM      29.66S
SALEM*         CLOUDY    50  49  96 S6        29.66S FOG
METROPOLIS*    CLOUDY    53  50  90 CALM      29.72S
$$

ILZ067-068-072-073-078-083-087-091-201500-
SOUTHEAST ILLINOIS

CITY           SKY/WX    TMP DP  RH WIND       PRES   REMARKS
LAWRENCEVILLE  CLOUDY    52  52 100 SW13      29.69R FOG
FLORA*         CLOUDY    51  50  97 SW6       29.68R FOG
FAIRFIELD*     CLOUDY    51  50  97 S6        29.68R
HARRISBURG*    CLOUDY    52  48  87 SW12      29.72R
ROBINSON*      CLOUDY    50  50 100 SW9       29.68R FOG
CARMI*         CLOUDY    52  50  92 S8        29.70R
$$

ABBREVIATIONS USED IN REMARKS
   TC - TEMPERATURE IN CELSIUS
  WCI - WIND CHILL INDEX
   HX - HEAT INDEX
  VSB - VISIBILITY
$$




USA.gov is the U.S. government's official web portal to all federal, state and local government web resources and services.